Погода в Никите

Россия / Республика Крым     44°30′40″N   34°14′25″E
темп.,
°C
ветер,
м/с
пор.,
м/с
влажн.,
%
обл.,
%
осадки,
мм/ч
давл.,
гПа
погр.,
м
17 мая, вт
вт1700:00+14сз44665 0.0 101830
03:00+13ссз556468 0.0 101840
06:00+14сз44625 0.0 101728
09:00+16зюз346150 0.0 1017580
12:00+16юз356354 0.0 1017623
15:00+17зюз576233 0.0 1016599
18:00+17з566397 0.0 101556
21:00+15з446881 0.0 101540
18 мая, ср
ср1800:00+15зюз4567100 0.0 101463
03:00+14зюз5670100 0.0 1012119
06:00+15зюз4563100 0.0 101067
09:00+15юз4666100 0.0 1009184
12:00+13сз3586100 2.8 1009313
15:00+12сз5778100 4.3 1011619
18:00+11сз4670100 0.0 1014723
21:00+11сз4569100 0.1 1017380
19 мая, чт
чт1900:00+9сз4571100 0.1 1019446
03:00+9сз357034 0.1 1020876
06:00+9зсз247134 0.0 1021685
09:00+9зсз247734 0.2 1022506
12:00+12сз146733 0.1 1023575
15:00+13юз126390 0.3 1024472
18:00+14з23698 0.2 1025194
21:00+12сз33763 0.2 102656
20 мая, пт
пт2000:00+12сз33712 0.0 102754
03:00+12сз337111 0.0 102746
06:00+12ссз43665 0.0 102750
09:00+15ю12553 0.0 1027455
12:00+15ююз556330 0.0 1027625
15:00+16ююз456828 0.0 1025561
18:00+16ююз3469100 0.0 1024379
21:00+14зюз2380100 0.0 102542
21 мая, сб
сб2100:00+13зюз338011 0.0 102459
03:00+12з347664 0.0 1023124
06:00+12зюз34732 0.0 1022165
09:00+14ююз33672 0.0 1021298
12:00+15ю44715 0.0 1019394
15:00+15ю44715 0.0 1018366
18:00+14ююз44742 0.0 1017286
21:00+13зюз34812 0.0 1016197